Wind_Speed
9 12 14 14 16 17 19 21 23 25 27 29 30 32 33 34 35 35 35 34 33 32 31 30 29 28 26 25 24 23 23 22 22 23 23 25 28 29 29 30 31 32 32 33 32 32 31 31 30 28 27 26 25 24 22 22 21 20 19 17 16 14 12 12 12 12 11 10 9 7 6 4 4 4 5 4 3 5 6 6 7 9 10 10 9
11 13 16 18 19 20 21 23 25 26 28 29 31 32 33 35 35 35 35 34 33 32 31 29 28 27 26 25 24 24 24 23 23 23 24 27 29 30 30 30 30 30 30 30 30 30 29 28 26 25 24 23 22 20 19 18 16 15 14 13 12 10 9 8 8 7 7 6 5 4 3 1 2 2 3 3 4 6 6 7 9 11 12 12 11
13 14 17 20 22 23 23 24 26 27 28 29 31 32 34 35 36 35 35 34 32 31 29 28 27 26 25 25 25 25 25 23 23 23 26 29 30 30 29 29 29 29 28 28 27 27 26 24 23 21 20 19 18 17 17 15 14 13 11 9 9 8 7 6 6 6 6 5 5 3 1 2 3 3 4 5 6 7 8 10 11 12 14 14 12
14 16 19 21 23 24 24 25 26 27 28 29 31 32 34 35 35 35 34 32 31 29 28 27 27 26 25 25 26 26 25 24 24 25 27 29 29 28 28 27 27 25 24 23 23 22 22 21 20 19 17 16 15 15 14 13 12 11 10 8 6 5 5 5 5 5 5 4 3 1 1 2 3 3 4 5 7 8 10 11 13 14 14 14 13
14 16 18 22 24 25 25 26 27 28 29 30 31 33 34 34 34 33 32 30 29 28 27 27 27 26 26 26 26 25 25 25 25 26 26 26 26 26 25 24 23 22 21 20 19 19 18 18 17 15 14 12 11 10 9 8 7 6 5 3 2 1 1 0 1 2 2 2 1 4 6 6 6 6 7 7 8 9 10 11 12 14 15 15 16
16 17 18 21 24 27 28 28 29 30 30 31 31 32 33 33 32 31 29 28 27 27 27 27 27 26 26 26 25 25 25 25 26 25 24 23 23 23 22 22 21 20 19 18 17 16 16 16 14 13 11 9 8 7 5 4 3 2 1 0 1 1 2 4 4 4 3 4 6 8 9 9 9 8 9 10 11 11 12 13 14 16 17 18 19
18 19 19 21 23 27 30 31 32 32 32 31 31 31 31 31 30 29 28 27 27 27 28 28 27 27 26 26 26 26 26 26 25 24 21 20 21 20 20 20 19 19 18 16 14 13 12 11 9 8 6 6 5 4 3 3 3 2 2 3 3 2 2 4 6 6 5 6 8 10 10 10 10 11 12 13 14 15 15 16 17 17 20 23 24
20 20 21 22 23 25 29 32 34 34 33 32 31 31 30 30 29 28 27 27 27 27 27 27 27 27 26 26 26 26 25 25 24 22 20 19 19 18 18 18 17 17 15 13 11 9 7 5 4 3 2 2 2 1 1 1 0 2 4 5 5 4 5 6 8 9 9 10 11 13 13 12 13 14 15 15 16 17 18 18 19 19 21 26 29
23 23 23 24 24 25 28 30 32 33 33 33 31 30 30 29 28 28 28 28 27 27 27 27 27 26 26 25 25 24 24 23 22 21 20 19 18 17 17 17 16 15 13 11 9 7 6 5 5 5 6 5 4 3 4 5 5 5 6 7 8 8 8 9 11 13 14 15 16 17 16 16 16 18 18 16 16 18 18 18 20 21 22 27 30
24 24 24 25 26 27 27 29 30 31 32 32 31 31 30 29 29 28 28 28 28 28 27 27 27 27 26 25 24 24 23 22 21 20 19 18 17 17 17 16 15 14 13 11 11 10 10 9 9 9 9 9 8 9 9 10 10 10 11 12 13 13 13 13 14 15 16 17 18 18 18 18 18 18 18 17 17 18 17 18 20 23 26 30 32
25 25 26 27 27 28 29 29 29 30 30 31 31 31 30 29 28 28 28 28 28 28 28 28 28 28 27 26 25 24 23 22 21 20 19 18 17 16 16 15 14 14 14 14 14 13 13 13 12 12 12 12 13 13 13 13 13 13 14 15 16 17 17 17 17 17 19 19 20 20 19 19 19 19 19 19 20 20 21 21 23 26 29 33 34
26 27 28 28 29 29 30 30 30 30 30 30 30 30 29 28 28 27 27 27 27 27 27 28 28 27 27 26 25 25 24 23 22 21 20 19 18 17 16 16 15 15 15 15 15 15 15 15 15 15 15 15 15 15 15 15 15 15 16 17 18 18 18 18 19 20 22 22 23 23 23 23 23 23 23 23 24 25 25 26 27 28 31 34 36
28 28 28 28 29 29 30 31 31 31 30 29 28 28 27 27 26 26 27 27 27 27 27 27 27 26 26 25 25 24 23 23 22 21 21 20 20 19 19 18 18 17 17 17 17 18 18 19 19 18 18 17 17 17 17 17 17 18 20 22 22 22 21 22 22 23 24 25 25 25 26 26 26 26 27 27 28 29 29 30 31 32 34 37 39
29 29 28 28 28 29 29 30 31 31 30 29 28 28 27 26 26 26 26 27 27 27 26 26 26 25 24 24 23 23 23 23 22 22 21 21 21 20 20 20 20 19 19 20 20 21 21 22 21 21 21 22 21 21 21 21 22 24 26 28 27 27 26 25 24 25 26 28 28 28 28 29 29 30 31 31 31 32 33 33 35 37 39 42 43
30 29 28 26 26 27 28 29 30 30 30 30 29 28 27 27 26 26 26 26 26 25 25 26 26 25 24 24 23 23 23 22 22 22 22 21 21 21 21 21 21 21 21 22 22 23 24 23 23 24 25 25 24 24 23 24 26 28 31 32 31 31 30 29 29 30 30 31 33 33 33 34 34 35 35 36 36 36 37 39 42 44 45 46 48
30 30 28 26 26 27 27 28 29 29 29 29 29 28 27 27 27 27 27 27 26 26 26 26 27 26 26 26 25 25 24 24 23 23 23 24 24 24 23 23 23 23 23 24 24 25 25 24 24 25 26 26 27 26 26 26 27 29 31 33 33 32 33 33 33 34 34 35 36 36 37 37 38 39 39 40 41 42 43 45 47 49 50 51 51
30 29 26 25 26 26 27 28 29 29 29 28 28 27 27 26 27 27 28 28 28 28 28 27 27 27 27 27 27 27 26 26 26 26 26 27 27 27 26 26 26 26 26 26 27 27 27 26 26 27 28 28 28 28 27 27 28 29 33 35 34 34 34 35 35 35 36 36 37 37 38 39 40 42 43 45 46 47 48 49 51 53 54 55 55
30 27 25 25 27 28 29 30 31 30 29 29 27 27 27 27 27 28 28 28 28 28 27 27 27 27 27 27 27 27 26 26 27 27 28 28 29 28 28 27 27 27 28 29 30 30 29 28 28 28 28 29 28 27 27 28 29 31 35 37 36 36 37 37 37 36 37 38 39 40 42 43 44 46 48 49 50 52 53 54 55 56 57 58 58
32 29 28 29 31 32 33 33 32 31 30 29 28 28 28 29 29 29 29 28 28 27 27 27 27 27 27 27 26 26 26 26 26 27 28 28 29 29 29 29 29 30 32 33 33 32 31 30 29 28 27 27 27 27 28 31 33 34 37 39 40 40 40 40 39 40 41 43 43 45 46 48 50 52 53 54 54 56 57 58 60 60 61 61 61
36 33 33 35 35 36 36 35 33 32 31 30 29 29 29 30 30 29 29 28 28 28 28 29 30 30 30 29 28 28 28 29 29 30 31 31 32 32 32 32 33 33 34 34 33 33 31 30 29 28 28 28 29 31 33 35 37 38 39 42 44 43 42 42 43 44 46 46 46 48 51 53 55 56 57 57 58 59 61 63 64 65 65 64 64
41 39 40 41 40 39 39 38 36 35 33 32 32 31 31 30 30 29 29 28 28 30 31 33 34 34 32 31 30 30 30 29 30 31 31 32 32 32 32 33 33 34 33 33 33 33 32 31 32 33 34 34 35 37 37 36 37 38 40 43 48 49 48 48 49 49 49 49 50 53 56 57 57 58 59 60 62 63 65 67 67 68 68 68 68
44 44 43 41 40 39 39 40 40 39 38 37 35 34 33 32 31 31 30 30 31 32 34 34 33 32 31 30 29 29 29 29 29 30 31 31 32 32 33 34 35 35 34 33 34 35 35 35 36 37 38 38 38 38 38 38 38 39 43 49 53 54 53 53 52 51 51 52 55 58 60 61 61 61 62 64 65 66 67 67 68 68 69 70 72
44 45 42 39 39 40 41 43 44 44 43 41 39 38 38 36 35 34 34 35 36 36 35 35 34 33 33 33 31 31 32 32 32 32 33 34 34 35 36 37 37 36 36 36 37 38 38 39 38 39 39 39 40 40 41 43 44 45 49 53 55 55 55 54 53 52 54 57 60 64 66 66 66 65 65 66 66 66 67 67 68 70 71 73 75
43 44 43 42 43 45 46 45 44 44 45 45 43 41 41 41 40 38 36 37 39 40 41 40 40 39 38 37 36 36 36 36 36 37 38 38 38 38 39 39 38 37 38 39 40 41 42 42 41 41 41 42 43 45 47 50 51 52 54 56 56 56 57 56 56 57 60 63 66 69 70 69 68 68 67 67 67 67 68 70 71 73 74 76 77
46 47 47 46 45 46 47 47 45 45 45 46 46 45 44 44 44 41 38 36 37 39 42 44 44 44 43 42 40 40 40 40 40 40 41 41 42 42 42 41 40 40 41 42 42 42 43 44 43 43 43 44 47 50 53 56 57 56 57 59 60 61 61 61 61 64 67 69 70 71 72 71 71 70 70 70 70 71 72 74 76 78 79 80 82
49 51 52 49 45 44 47 48 48 49 49 48 47 46 46 47 48 47 44 42 40 40 41 44 46 46 46 44 42 41 41 40 39 39 39 41 43 43 43 43 43 44 45 46 46 47 48 48 48 49 49 49 52 56 59 61 62 62 63 64 65 66 66 67 68 70 71 72 73 73 74 73 73 73 74 74 75 77 79 81 83 84 84 85 86
51 52 53 52 48 45 47 49 49 51 52 51 49 49 49 50 51 51 51 50 48 47 46 47 48 47 46 44 41 38 37 38 39 39 40 42 44 44 45 46 47 47 47 48 49 50 52 52 54 56 56 56 58 62 64 66 67 68 69 70 70 70 71 72 73 74 75 75 75 75 75 75 76 77 79 80 82 84 86 88 89 89 90 91 91
53 52 53 53 52 51 51 51 50 51 52 52 51 51 51 52 53 53 54 54 55 54 53 51 50 49 48 46 44 41 40 41 42 41 40 41 41 43 44 46 48 49 49 50 52 53 54 55 56 58 59 59 60 63 66 68 69 70 71 72 73 73 73 73 74 75 76 77 77 77 77 78 80 83 85 87 89 90 91 92 93 94 94 95 95
55 53 53 53 53 54 55 54 53 53 53 54 54 54 54 55 55 55 56 57 58 59 58 56 54 53 52 51 50 49 49 50 50 49 47 46 45 45 45 45 46 48 51 54 56 57 57 58 58 59 59 60 61 63 66 67 68 69 69 70 71 72 73 74 75 76 77 78 80 80 82 84 86 89 91 92 93 94 94 95 96 97 97 98 99
61 58 55 53 53 54 55 55 55 55 55 55 56 56 57 57 57 57 58 59 60 60 59 59 59 58 57 56 55 53 54 55 56 55 53 51 49 48 47 45 45 46 49 51 53 54 55 56 56 57 58 59 61 63 64 65 66 68 68 69 71 72 74 76 77 79 80 82 84 85 87 89 91 92 93 95 96 96 97 98 99 100 101 103 104
67 65 61 56 53 52 54 55 55 55 55 54 55 57 58 59 59 60 60 61 61 62 61 61 61 61 61 61 60 58 57 57 58 58 57 55 55 54 51 48 47 48 50 52 54 55 57 58 59 61 63 65 66 67 68 69 71 72 73 74 75 77 79 80 82 83 85 86 88 89 91 92 93 94 96 97 98 99 100 102 103 105 106 107 108
71 69 66 62 58 54 53 54 54 54 54 53 53 53 54 56 58 59 60 61 62 63 64 64 63 63 63 64 64 64 63 62 62 64 64 64 63 62 59 57 56 56 57 58 60 61 63 65 67 68 70 71 71 72 72 72 73 74 76 77 78 80 81 82 84 85 86 87 89 90 92 93 95 97 99 100 102 103 105 106 106 107 106 106 106
72 71 69 67 65 62 59 57 57 57 57 57 56 56 55 56 57 58 60 61 63 64 66 66 66 66 66 67 67 67 67 66 67 67 69 69 69 68 67 66 65 65 65 65 66 67 69 70 71 72 73 74 74 74 74 74 74 75 77 78 79 81 83 84 86 87 89 90 92 93 95 96 98 99 100 101 102 103 103 103 104 104 105 106 107
74 73 71 70 69 67 64 62 61 61 61 61 61 62 61 61 61 60 61 62 63 65 66 68 69 69 69 69 70 70 70 70 70 71 72 73 73 72 70 68 67 67 66 66 66 66 67 68 69 69 70 70 71 72 73 74 75 76 78 80 82 84 85 87 88 89 90 91 92 93 94 95 96 97 99 100 102 103 105 107 109 111 113 115 118
75 74 73 72 70 69 67 64 62 62 62 62 63 64 65 65 65 65 65 65 65 66 67 68 70 71 72 72 72 73 74 74 75 75 75 76 76 76 74 72 71 71 70 70 69 69 68 68 69 69 71 72 73 75 76 77 79 81 82 83 84 85 86 87 88 89 91 92 94 95 97 99 101 104 106 109 111 113 115 117 118 120 121 123 123
74 74 74 73 71 70 69 68 66 65 64 61 60 60 61 63 64 65 66 66 67 67 68 69 70 71 72 72 73 74 75 76 76 77 77 78 78 79 79 78 78 78 78 78 78 79 79 79 80 80 81 83 84 86 87 88 89 90 91 92 92 93 94 95 96 97 99 101 103 105 107 110 112 114 116 117 119 120 121 122 123 124 125 125 126
69 71 71 71 72 70 69 69 69 69 68 66 62 60 59 59 61 62 63 64 65 65 66 67 69 70 72 73 73 74 74 75 76 76 77 77 78 79 81 82 83 83 83 84 84 85 85 86 86 87 88 89 90 91 92 94 95 96 97 97 98 99 100 101 102 104 106 108 110 112 114 115 117 118 119 120 121 122 123 124 125 126 127 129 131
63 63 63 66 70 71 70 70 71 71 72 71 70 67 65 63 63 64 65 66 66 66 66 67 68 69 70 72 73 73 74 74 75 75 76 78 79 80 82 83 84 85 86 87 88 88 89 90 91 91 92 93 94 95 96 97 98 99 99 100 101 103 105 106 108 110 112 113 114 115 116 117 118 119 120 121 123 124 126 127 129 131 133 135 137
68 66 64 65 67 68 69 70 71 73 73 74 74 74 72 69 68 68 68 69 70 71 72 72 73 73 73 74 74 75 75 76 77 79 80 81 82 83 85 86 88 89 90 91 92 92 93 93 94 94 94 95 96 97 98 99 100 102 104 106 107 109 111 112 113 114 114 115 115 116 117 119 120 122 124 126 128 130 132 134 136 137 139 140 142
79 77 75 73 72 71 70 70 71 72 73 74 75 76 77 76 75 73 73 73 74 74 75 76 77 78 79 80 80 81 82 83 84 85 86 87 88 90 92 93 95 96 96 96 96 96 97 97 98 98 98 99 99 101 102 104 106 108 110 112 113 114 114 115 116 116 117 118 119 121 123 125 127 129 131 133 134 136 137 139 140 141 141 142 143
82 82 81 80 79 79 78 78 78 77 77 76 76 77 78 79 80 80 80 80 80 80 80 81 82 84 85 87 88 89 90 90 91 92 93 94 95 97 98 99 99 100 100 100 100 99 100 100 100 100 101 103 105 107 109 111 113 114 115 115 116 117 118 118 119 120 122 123 125 127 129 131 132 134 136 137 138 139 139 140 140 140 140 140 140
84 83 84 83 83 83 83 84 84 85 84 84 83 82 82 82 82 82 83 84 84 84 85 86 87 88 89 90 91 92 93 94 95 95 96 97 98 99 100 101 102 103 103 103 103 103 102 102 103 106 108 111 113 114 115 116 117 117 118 118 119 120 121 122 124 125 127 128 130 132 134 135 136 137 138 138 137 137 137 137 137 137 137 137 136
85 85 86 86 86 87 87 87 87 86 86 86 86 87 87 86 86 86 86 86 87 87 88 88 89 89 90 90 91 92 93 94 95 96 98 99 100 101 102 103 104 104 104 105 105 106 107 109 112 115 116 117 117 118 118 119 119 120 121 122 123 124 125 127 128 130 131 132 134 135 135 135 135 135 134 134 134 133 134 134 134 133 133 131 129
88 88 88 88 89 89 90 90 90 89 88 87 87 87 88 88 89 89 89 88 88 88 89 89 89 90 90 91 91 92 93 94 95 97 98 99 101 102 103 104 105 106 107 108 110 113 115 117 119 120 120 120 121 121 122 122 123 124 125 126 127 128 130 131 132 132 133 133 132 132 132 131 131 131 131 131 131 130 129 128 127 126 125 123 121
89 90 90 91 92 92 93 93 93 93 92 92 91 91 92 92 92 92 93 93 93 93 93 93 93 93 94 94 94 95 96 97 98 100 101 103 104 105 106 107 109 111 113 115 116 117 118 119 120 121 121 122 123 123 124 125 126 127 128 128 129 129 130 130 130 130 129 129 128 128 128 127 127 127 126 126 125 124 122 121 119 117 116 114 113
87 89 90 92 93 94 96 96 96 96 96 96 95 96 96 96 97 97 98 99 99 100 100 101 101 102 102 103 103 103 104 105 106 107 108 109 109 110 110 111 112 113 114 115 116 117 118 118 119 120 121 122 123 124 124 125 126 126 127 127 127 127 126 126 126 126 125 125 124 124 123 122 122 121 120 118 117 116 114 113 111 110 109 108 107
81 83 86 88 90 93 95 96 98 99 99 99 99 99 100 100 100 101 102 102 103 104 104 105 105 106 106 107 107 108 108 109 109 110 110 111 111 112 112 113 113 114 114 115 116 116 117 118 118 119 119 120 121 121 122 122 123 123 123 123 122 122 122 121 121 120 119 118 118 117 116 115 114 113 112 110 109 108 107 105 105 104 104 103 103
71 74 76 79 82 85 88 90 93 95 97 99 100 101 102 102 103 104 105 106 106 107 108 109 109 110 110 110 110 110 110 110 110 110 110 110 111 111 111 112 112 113 113 113 114 114 115 115 116 116 117 117 117 118 118 118 118 118 117 117 116 115 115 114 113 112 111 110 110 109 108 107 106 105 105 104 102 101 101 100 100 100 100 99 99
58 61 64 67 70 73 76 79 82 85 87 90 92 95 97 98 100 101 102 103 104 105 107 107 108 109 109 110 110 110 110 110 110 110 109 109 109 109 109 109 109 110 110 110 110 110 111 111 111 111 112 112 112 112 111 111 111 110 110 109 108 107 106 105 104 103 102 102 102 101 100 100 100 99 99 98 97 97 97 97 97 97 97 97 98
45 48 51 54 56 59 62 65 68 71 74 77 80 83 86 88 90 92 94 95 96 97 98 99 99 100 100 100 100 100 100 100 100 100 100 100 100 101 101 101 101 102 102 102 102 103 103 103 104 104 104 104 104 104 104 103 103 102 101 100 99 99 98 97 96 96 96 96 96 96 96 96 95 95 94 94 94 94 95 95 95 96 96 97 98
39 41 43 45 47 49 51 53 56 58 60 63 65 68 71 74 77 80 82 85 86 88 88 89 89 90 89 89 89 89 89 88 88 88 88 89 89 90 90 91 92 92 93 93 94 95 95 96 96 96 97 97 97 97 96 96 95 94 94 93 93 92 92 92 92 92 93 93 93 93 93 93 93 92 92 93 93 94 94 95 95 96 97 98 99
Wind_Direction
144 139 135 135 137 140 142 141 142 142 144 145 146 146 147 148 148 150 150 150 150 149 148 147 146 146 145 143 142 140 138 137 134 130 125 120 120 125 129 128 128 128 129 130 130 130 130 130 129 128 127 126 125 123 121 119 118 116 114 111 110 111 112 112 113 112 111 111 109 104 101 104 112 109 107 104 76 45 30 15 0 357 358 354 345
154 148 143 142 143 143 143 143 143 144 145 146 147 148 148 149 150 151 152 151 151 150 149 149 149 148 148 147 146 144 142 139 135 131 127 124 124 126 127 127 127 128 128 129 128 128 128 127 127 126 126 124 121 120 118 116 114 111 110 109 109 110 109 105 105 108 111 112 108 104 94 28 2 18 25 21 20 19 9 351 343 342 342 343 336
160 155 151 149 148 148 147 147 147 147 148 148 148 149 150 151 152 153 153 153 152 152 152 152 152 153 152 151 149 148 146 142 137 134 131 128 126 126 126 126 126 126 126 127 126 126 124 122 122 123 122 122 121 121 121 119 115 109 103 101 103 107 112 112 113 115 111 106 100 95 73 6 1 13 15 10 12 11 358 344 339 333 328 329 327
166 162 158 155 154 153 151 151 151 151 151 151 150 151 152 154 155 155 155 155 155 155 156 156 157 157 156 155 154 152 149 145 141 138 134 129 128 129 130 130 130 129 128 126 125 124 122 120 120 120 119 119 119 118 116 112 108 104 98 96 99 110 126 134 137 137 133 129 117 75 333 319 330 337 347 358 2 357 346 338 333 326 320 319 320
174 169 164 161 158 157 156 155 155 155 154 153 153 154 155 156 158 158 159 159 159 159 159 159 159 160 159 159 157 154 150 147 144 140 135 132 133 135 136 136 136 135 134 132 129 127 126 124 123 122 122 123 122 118 109 99 98 99 97 98 109 123 119 141 211 201 208 227 297 322 317 320 324 323 330 341 343 338 328 318 314 315 314 313 312
179 174 171 168 163 161 160 158 158 158 157 157 158 158 159 161 162 163 164 163 162 161 161 161 162 162 163 162 159 156 153 150 147 144 141 140 141 143 144 144 142 141 140 138 134 131 131 130 130 129 126 124 125 121 112 99 91 92 94 268 264 277 330 332 310 291 294 308 316 317 317 320 320 316 316 317 316 315 312 307 304 304 302 302 301
181 177 175 173 170 166 163 162 161 161 161 162 162 163 164 165 167 167 167 166 165 163 163 164 164 166 166 165 162 159 157 156 154 152 150 149 150 151 151 151 150 148 146 144 139 136 135 135 135 134 128 122 122 119 106 89 84 121 182 217 240 251 283 301 297 295 297 296 292 290 291 295 299 299 298 299 302 305 304 304 305 304 301 299 297
181 180 178 176 174 172 169 167 165 165 165 165 166 167 168 169 169 170 170 169 169 168 167 167 168 169 170 170 168 166 164 163 163 162 160 158 158 158 159 159 158 157 155 151 147 144 144 147 151 165 179 167 154 124 54 29 352 218 217 227 236 246 261 270 275 278 278 275 272 272 275 280 286 287 286 291 297 297 297 299 301 300 298 294 293
180 181 180 178 177 176 174 172 169 168 168 168 168 170 171 172 173 173 174 174 174 174 173 173 173 174 176 176 175 174 172 171 169 168 167 166 165 165 166 166 166 166 167 169 170 175 188 205 221 231 235 234 239 267 293 293 281 266 259 256 253 256 263 266 269 274 276 277 276 276 278 279 279 280 282 287 291 290 293 296 293 290 286 284 287
179 180 181 181 180 179 177 175 173 171 170 170 171 172 174 176 177 178 179 179 180 180 180 181 181 182 183 183 183 181 179 178 177 176 175 176 177 176 175 176 177 180 185 192 200 209 219 228 236 241 243 244 249 259 268 273 272 270 271 272 273 275 276 274 273 275 277 279 281 282 282 282 280 279 279 279 279 280 284 289 288 287 283 282 285
180 180 181 183 183 181 180 179 178 177 175 175 176 177 178 180 182 183 183 183 184 185 185 186 186 187 188 189 189 189 189 188 188 188 189 190 191 191 191 192 195 199 204 211 218 225 231 238 243 246 247 248 251 257 262 266 268 268 269 272 276 280 282 282 281 281 282 284 285 285 284 284 283 280 275 272 270 271 274 279 283 286 285 284 285
181 182 183 184 185 185 184 184 184 184 184 183 182 181 182 183 184 185 186 186 186 187 188 189 190 190 192 193 194 196 197 199 201 202 205 207 209 211 214 216 219 221 224 228 233 237 243 247 250 251 253 256 260 264 268 271 273 275 275 276 278 279 280 280 281 283 286 287 286 285 284 283 282 279 276 274 275 274 275 278 281 282 283 284 285
182 184 185 185 186 187 188 188 189 190 191 190 190 189 188 188 189 189 190 191 192 192 192 193 193 193 194 196 198 201 203 207 209 211 215 217 220 223 226 229 232 235 239 242 245 249 253 255 258 261 264 266 269 272 274 277 280 283 283 284 283 281 281 282 282 284 286 285 285 285 285 283 282 279 278 278 278 277 277 278 279 279 280 282 284
184 185 186 186 188 189 191 191 192 194 195 196 197 197 197 196 197 196 196 197 197 196 197 197 197 198 199 200 201 203 206 209 211 214 217 220 223 225 228 231 234 237 241 245 249 253 256 260 264 268 269 270 272 274 277 280 283 284 284 283 282 281 281 281 280 280 281 281 283 285 285 285 284 283 282 281 280 279 278 279 281 283 283 283 285
187 186 186 188 191 192 193 194 194 196 197 199 201 203 203 204 203 202 202 202 201 201 201 202 202 203 205 207 208 210 212 213 215 219 222 226 229 232 234 237 239 242 245 248 252 256 258 261 265 267 270 272 275 278 281 283 284 285 285 282 280 279 277 275 274 275 276 277 280 282 284 284 284 284 284 284 283 283 283 284 287 289 288 286 287
189 188 187 190 196 199 198 198 197 197 198 200 202 203 205 208 208 207 207 206 206 206 208 209 209 210 212 214 216 219 221 223 224 227 230 233 237 240 243 247 249 251 253 255 257 259 261 263 267 270 273 277 279 281 282 283 284 284 283 281 279 279 278 276 274 273 274 276 278 279 280 281 282 282 284 285 286 286 287 288 289 290 289 289 290
190 188 187 191 200 205 205 204 203 202 202 202 203 203 205 208 211 212 213 213 212 213 215 216 217 218 219 219 221 224 226 227 229 231 232 236 239 243 246 249 253 256 259 260 262 263 264 267 270 274 276 277 279 281 281 281 281 279 277 276 277 278 281 281 278 275 277 281 281 280 282 283 284 285 285 286 287 288 288 289 289 289 290 291 291
191 189 191 196 204 209 211 210 209 207 206 206 206 206 208 210 213 215 217 218 219 219 221 223 225 226 227 227 228 230 231 232 233 235 236 238 241 244 246 249 253 255 258 260 262 264 266 268 269 271 273 276 279 281 281 279 277 277 277 276 276 278 282 284 282 280 282 285 284 283 284 286 288 288 288 288 289 289 289 290 290 291 291 291 292
193 193 200 206 208 211 213 212 210 210 210 209 209 211 212 214 216 218 219 221 223 225 226 228 231 232 233 234 235 237 239 241 242 244 245 246 247 249 251 253 255 257 258 259 260 262 263 264 265 266 269 272 274 275 275 276 277 279 282 282 280 280 282 281 278 278 280 283 285 286 288 290 291 292 292 291 291 291 291 292 293 293 292 291 292
197 197 204 210 211 212 213 212 211 210 209 209 211 213 215 217 218 221 222 223 224 227 229 230 232 233 234 235 237 239 241 243 245 248 250 251 253 255 256 257 257 258 259 260 260 261 261 263 266 268 268 268 268 270 272 276 280 282 283 282 281 282 282 281 279 279 280 283 287 291 295 296 296 296 295 294 293 294 294 295 295 294 293 291 291
200 200 205 210 213 214 213 213 213 212 211 211 213 214 216 218 220 222 224 225 226 228 230 230 232 233 234 235 237 240 243 246 248 250 252 254 256 257 258 259 260 260 261 262 264 265 266 267 270 272 271 271 271 272 273 276 278 278 277 276 277 279 283 284 284 282 282 284 289 294 296 297 296 295 294 293 293 294 294 294 295 294 293 291 291
204 205 206 211 217 217 217 217 216 215 215 215 217 220 221 222 224 227 228 230 231 234 236 237 237 238 239 240 242 245 247 249 251 253 255 256 258 259 261 261 262 262 262 264 267 268 269 271 272 272 272 273 273 273 274 273 272 270 270 272 275 279 283 286 286 284 284 287 290 293 294 294 293 292 291 291 291 291 292 293 293 293 292 292 291
210 210 210 214 218 219 220 222 221 221 222 224 224 225 226 226 228 231 235 237 239 241 242 243 242 242 243 244 246 249 251 252 253 255 256 257 257 258 259 260 260 263 265 267 269 270 271 273 274 273 272 272 273 273 273 271 269 267 268 271 275 279 283 284 284 284 285 287 289 290 290 290 291 290 290 290 290 290 291 292 293 293 293 292 292
212 212 212 215 220 220 221 223 224 225 228 231 233 232 230 229 230 232 236 240 244 246 246 246 244 243 242 242 243 246 250 252 254 256 258 260 260 259 259 259 258 259 263 266 268 269 270 271 272 271 269 269 272 273 272 270 269 269 270 271 275 278 278 278 279 281 282 284 286 287 288 288 289 289 289 289 290 291 292 293 293 294 293 293 293
209 211 212 215 221 225 226 225 226 226 227 231 234 234 233 233 234 234 235 239 242 245 247 248 247 246 245 244 243 244 246 249 253 256 258 259 259 259 260 260 256 254 256 258 261 263 265 266 267 267 266 266 269 270 269 268 268 268 268 269 272 274 274 274 276 278 280 282 284 285 286 287 288 288 289 290 291 292 293 294 294 294 294 293 293
211 212 213 215 220 228 233 232 230 229 230 233 234 234 233 233 235 236 238 239 241 242 244 246 247 247 248 248 248 249 249 249 250 254 257 258 257 258 260 261 258 256 256 257 258 260 262 263 265 265 264 265 267 268 268 268 269 269 269 270 271 273 274 275 277 279 281 282 284 285 286 287 288 289 290 290 291 292 293 294 294 294 293 293 293
216 215 216 217 218 223 231 235 233 232 233 235 237 237 236 234 234 236 239 240 241 243 243 243 244 246 249 251 251 249 246 244 245 251 259 261 259 258 260 262 260 258 258 259 260 261 263 264 265 266 266 267 269 270 271 272 273 273 274 274 275 276 277 278 280 282 283 284 284 285 285 286 287 289 290 291 292 292 293 293 293 293 293 293 293
220 220 220 221 220 220 225 230 232 232 233 234 236 238 238 236 235 236 239 240 241 242 243 244 245 246 249 251 251 248 245 245 247 251 258 260 258 258 262 264 262 258 256 257 260 263 264 265 265 267 268 269 271 273 274 275 275 276 276 277 278 279 280 281 283 284 285 286 286 286 286 287 288 289 290 290 291 291 292 292 293 293 293 293 293
222 222 223 225 225 224 226 228 230 231 233 234 236 238 239 239 238 238 240 241 242 243 244 245 246 247 249 251 252 252 253 254 254 256 258 259 257 259 264 267 264 259 257 259 262 264 265 266 266 268 269 271 272 274 276 276 277 278 278 279 280 281 282 283 284 285 286 286 287 287 287 287 288 288 289 289 290 290 290 291 291 292 292 292 291
222 223 225 226 227 228 229 231 232 234 236 237 238 240 243 244 244 244 244 246 246 246 247 247 248 248 249 251 253 255 256 257 257 258 260 260 260 263 266 267 264 261 260 262 263 264 265 266 268 269 271 273 275 276 276 278 280 281 282 283 283 283 284 284 285 286 286 286 286 286 287 287 288 288 288 289 289 289 289 289 289 289 289 289 289
224 225 225 225 226 229 231 233 235 237 238 240 241 243 245 246 247 248 249 250 250 250 250 250 250 250 251 252 252 253 254 255 256 258 260 261 264 267 268 265 262 261 262 264 266 267 268 269 271 273 276 278 279 280 281 282 283 284 285 285 285 286 286 286 286 286 286 286 286 286 286 287 287 287 287 287 286 286 286 286 286 287 287 288 288
225 226 225 224 224 228 232 234 236 238 239 241 242 244 246 247 248 249 250 251 252 253 253 253 252 252 252 252 253 253 254 254 256 259 262 265 268 269 269 267 264 263 263 264 266 268 270 272 274 277 279 281 282 283 283 284 284 284 285 285 285 285 284 284 284 283 283 283 283 283 284 284 284 284 284 284 284 284 285 285 286 286 287 287 287
226 227 227 226 226 229 232 235 239 241 242 243 245 246 248 249 249 249 249 250 251 253 254 255 255 254 253 253 253 254 255 256 257 260 263 266 269 271 272 272 272 271 270 270 271 272 273 275 277 278 280 281 282 282 282 282 281 281 281 281 281 281 281 281 281 281 282 282 282 283 283 283 283 283 283 283 283 284 284 285 285 285 286 286 287
226 227 228 229 230 231 232 234 237 241 244 246 248 249 250 251 250 250 251 251 251 252 253 254 256 256 256 255 255 255 256 257 258 259 261 264 266 269 270 272 273 273 273 273 274 275 276 276 277 277 278 278 278 279 279 278 278 279 279 280 280 281 281 282 282 282 282 282 282 282 282 281 281 281 282 282 283 284 285 286 286 287 288 289 290
227 228 230 232 233 235 235 235 235 238 243 246 249 251 253 253 253 253 254 254 254 253 253 254 255 256 257 257 258 258 259 259 260 261 261 262 264 265 266 267 267 268 268 269 269 269 269 269 269 269 270 271 272 273 274 275 276 277 278 278 278 279 279 279 279 279 280 280 280 281 281 282 283 284 285 286 287 288 288 289 290 290 291 291 291
229 230 232 234 235 237 237 237 236 237 239 242 244 247 250 252 254 255 256 257 257 257 257 257 257 257 258 259 260 261 262 262 263 263 263 263 264 265 266 267 267 267 268 268 268 268 268 268 269 269 270 271 272 273 275 276 277 278 278 278 278 278 278 279 279 280 281 282 283 284 285 286 287 288 288 289 290 290 291 291 291 291 291 291 291
227 230 232 234 236 238 239 239 239 239 239 240 240 240 242 245 248 251 253 255 256 257 258 259 260 260 261 262 263 263 264 265 266 266 267 267 267 267 267 268 269 270 270 271 271 272 272 273 274 275 275 276 277 278 279 279 280 280 280 280 281 280 281 281 282 282 283 284 285 286 287 287 288 289 289 290 290 290 290 290 290 290 290 290 290
223 227 232 235 237 240 242 243 244 244 243 243 243 243 242 242 244 247 249 251 252 253 254 255 257 258 260 262 263 264 265 266 267 268 269 269 270 270 271 271 271 272 273 273 274 274 275 276 276 277 278 278 278 279 279 279 279 280 280 281 281 282 282 283 284 284 285 286 286 287 287 288 288 288 288 288 288 289 289 289 290 290 291 291 292
226 229 232 235 238 241 244 245 246 247 247 247 247 247 246 245 244 245 246 248 250 251 252 253 253 254 255 257 259 260 262 263 264 266 266 267 268 270 271 272 272 273 274 274 274 275 275 275 276 276 276 276 276 277 277 278 278 279 280 281 282 283 284 284 285 285 286 286 286 286 286 286 287 287 288 288 289 289 290 291 291 292 292 293 293
232 233 235 237 239 242 244 245 246 246 247 248 249 249 249 248 247 246 245 246 248 250 251 252 254 255 256 257 258 259 260 261 262 264 265 266 267 268 270 271 272 273 273 273 273 273 274 274 274 274 274 275 275 276 277 278 279 280 281 282 282 283 283 284 284 284 285 285 285 286 286 287 288 289 289 290 291 291 291 292 292 293 293 294 294
236 237 238 239 241 243 245 247 248 249 250 251 251 251 251 251 251 250 250 250 250 251 252 253 255 257 258 259 260 261 262 263 263 264 265 266 268 269 270 271 272 272 272 272 272 272 272 272 273 273 274 275 277 278 279 279 280 281 281 282 282 283 283 284 284 285 285 286 287 287 288 289 289 290 290 291 291 292 292 292 293 293 293 294 294
238 239 240 241 242 243 244 245 247 250 251 252 253 253 253 253 253 253 253 254 254 254 254 255 256 257 259 260 261 262 263 264 264 265 266 267 268 269 270 271 271 271 272 272 272 272 272 273 274 275 276 278 279 279 280 280 281 281 282 283 283 284 285 285 286 286 287 288 288 288 289 289 290 290 290 291 291 292 292 292 293 293 293 294 294
240 241 241 242 243 243 244 245 245 247 249 250 251 252 253 254 254 255 255 255 255 256 256 257 257 258 259 259 260 261 262 263 264 265 265 266 267 268 269 269 270 270 271 272 272 273 274 275 276 278 279 280 280 281 281 282 282 283 284 284 285 286 286 287 287 287 288 288 288 288 289 289 290 290 291 291 291 292 292 292 293 293 294 294 295
242 243 243 244 245 246 246 247 247 247 247 248 249 250 251 252 253 253 254 254 255 256 256 257 257 258 258 259 260 261 262 263 263 264 265 266 267 267 268 268 269 270 271 272 273 274 275 276 277 278 279 280 280 281 282 283 283 284 284 285 285 286 286 287 287 287 288 288 288 289 289 290 290 290 291 291 292 292 293 293 294 294 295 295 296
243 244 245 246 246 247 248 249 250 250 250 250 250 250 251 251 252 252 253 254 255 255 256 257 257 258 259 259 260 261 261 262 263 264 265 266 266 267 268 268 269 270 271 273 274 275 275 276 277 278 279 280 280 281 282 282 283 284 284 285 285 286 286 287 287 287 288 288 289 289 289 290 290 291 291 292 292 293 293 294 294 295 295 296 297
243 244 245 246 247 248 249 250 252 253 254 254 255 255 255 255 255 256 256 257 257 258 259 259 260 261 261 262 263 263 264 265 266 267 268 269 269 270 270 271 272 273 274 274 275 276 276 277 278 279 279 280 281 281 282 283 283 284 284 285 285 286 286 287 287 288 288 289 289 290 290 291 291 292 292 292 293 293 294 295 295 296 297 297 298
246 247 247 248 249 250 250 251 253 254 255 256 257 258 259 259 260 260 261 261 262 262 263 264 264 265 266 266 267 267 268 269 270 270 271 272 272 273 273 274 274 275 275 276 277 277 278 278 279 279 280 281 281 282 282 283 283 284 284 285 285 286 286 287 288 288 289 289 290 290 290 291 291 292 292 293 294 294 295 296 297 297 298 299 299
250 250 251 252 252 253 254 254 255 256 257 258 259 260 261 261 262 263 263 264 264 265 266 266 267 268 269 270 270 271 271 272 272 273 273 274 274 275 275 275 276 276 277 277 278 278 278 279 279 280 280 281 281 282 282 283 283 284 285 285 286 286 287 288 288 289 289 290 290 290 291 291 292 293 294 295 296 296 297 298 298 298 299 300 301
251 252 253 254 254 255 256 257 257 258 259 259 260 261 261 262 263 263 264 265 265 266 266 267 268 268 269 270 271 271 272 272 273 273 274 274 275 275 276 276 277 277 278 278 278 279 279 279 280 280 281 281 282 282 283 284 284 285 285 286 286 287 288 288 289 289 290 290 290 291 292 293 293 294 295 296 297 298 298 299 299 300 301 301 302
250 251 252 254 255 256 257 258 259 259 260 261 261 262 262 263 263 264 264 264 265 265 266 267 267 268 268 269 270 270 271 272 272 273 274 274 275 275 276 276 277 277 278 278 279 279 280 280 281 281 282 282 283 283 284 284 285 286 286 287 288 288 289 289 289 290 290 291 291 292 293 294 295 296 297 298 298 299 299 300 300 301 302 303 303
254 255 256 257 258 259 259 260 261 261 262 263 264 264 265 265 265 265 265 265 265 266 266 266 267 267 268 269 269 270 271 272 273 274 274 275 276 276 276 277 277 278 278 279 279 280 280 281 281 282 283 283 284 285 285 286 287 287 288 289 289 289 290 290 290 290 291 291 292 293 294 295 296 297 298 299 299 300 300 300 301 302 303 304 305
Height
10926 10926 10925 10926 10927 10927 10928 10929 10930 10931 10932 10933 10934 10936 10938 10939 10941 10943 10945 10947 10949 10951 10952 10953 10954 10955 10956 10958 10959 10960 10961 10962 10963 10963 10964 10965 10966 10967 10968 10969 10970 10971 10971 10972 10973 10974 10975 10976 10977 10977 10978 10979 10980 10981 10982 10983 10984 10984 10985 10986 10987 10987 10988 10989 10989 10990 10990 10991 10992 10992 10993 10993 10993 10994 10994 10994 10995 10995 10995 10995 10995 10995 10995 10994 10994
10926 10926 10926 10927 10927 10929 10930 10931 10932 10933 10934 10935 10937 10938 10940 10941 10943 10945 10947 10949 10951 10952 10954 10955 10956 10957 10958 10959 10960 10961 10962 10963 10964 10965 10966 10966 10967 10969 10970 10971 10971 10972 10973 10974 10975 10976 10977 10978 10979 10979 10980 10981 10982 10983 10983 10984 10985 10986 10987 10987 10988 10989 10990 10990 10990 10991 10991 10991 10992 10992 10993 10993 10993 10993 10993 10994 10994 10994 10995 10995 10995 10995 10995 10994 10994
10926 10926 10927 10927 10928 10929 10931 10932 10934 10935 10936 10938 10939 10940 10942 10943 10945 10946 10948 10950 10952 10954 10955 10957 10957 10958 10959 10960 10961 10962 10963 10964 10966 10967 10967 10968 10969 10970 10971 10972 10973 10974 10975 10976 10977 10977 10978 10979 10980 10981 10982 10982 10983 10984 10984 10985 10986 10987 10988 10989 10989 10990 10991 10991 10991 10991 10991 10992 10992 10993 10993 10993 10993 10993 10993 10993 10994 10994 10995 10995 10995 10995 10994 10994 10993
10928 10927 10927 10927 10928 10930 10931 10933 10935 10936 10938 10939 10941 10942 10944 10945 10947 10948 10950 10952 10953 10955 10957 10958 10959 10960 10961 10962 10962 10963 10964 10965 10967 10968 10969 10969 10970 10972 10973 10974 10974 10975 10976 10977 10978 10979 10979 10980 10981 10982 10983 10984 10985 10985 10986 10986 10987 10988 10989 10989 10990 10991 10991 10991 10992 10992 10992 10992 10993 10993 10993 10993 10993 10993 10993 10993 10994 10994 10994 10994 10994 10994 10994 10993 10993
10930 10929 10929 10928 10928 10930 10931 10933 10935 10937 10939 10941 10942 10944 10945 10947 10948 10950 10951 10953 10954 10956 10958 10959 10960 10961 10962 10963 10964 10965 10966 10967 10968 10969 10970 10971 10972 10973 10974 10974 10975 10976 10977 10978 10979 10980 10980 10981 10982 10983 10984 10985 10985 10986 10987 10987 10988 10988 10989 10989 10990 10990 10990 10991 10992 10992 10993 10993 10993 10993 10993 10993 10993 10993 10993 10993 10993 10993 10993 10993 10992 10992 10993 10993 10992
10931 10931 10932 10931 10930 10930 10931 10933 10935 10938 10940 10942 10943 10945 10946 10948 10950 10951 10953 10954 10955 10957 10958 10959 10960 10961 10962 10964 10965 10966 10967 10968 10969 10970 10971 10972 10972 10973 10974 10975 10976 10976 10977 10978 10979 10980 10981 10982 10983 10983 10984 10985 10986 10986 10987 10988 10988 10988 10989 10989 10990 10990 10990 10991 10991 10992 10992 10993 10993 10993 10993 10993 10993 10992 10992 10992 10992 10992 10992 10992 10991 10990 10991 10991 10991
10931 10932 10933 10934 10934 10933 10933 10933 10935 10937 10940 10942 10944 10945 10947 10949 10950 10952 10954 10955 10956 10957 10959 10960 10961 10962 10963 10964 10965 10966 10967 10968 10969 10970 10971 10972 10973 10973 10974 10975 10976 10977 10978 10979 10980 10981 10982 10982 10983 10984 10985 10985 10986 10987 10987 10988 10988 10989 10989 10990 10990 10990 10991 10991 10991 10992 10992 10992 10992 10992 10992 10992 10991 10991 10991 10991 10991 10991 10991 10991 10990 10989 10988 10987 10988
10931 10932 10933 10935 10936 10936 10936 10935 10936 10937 10939 10941 10943 10945 10947 10949 10950 10952 10954 10956 10957 10958 10959 10961 10962 10963 10964 10965 10966 10967 10968 10969 10970 10970 10971 10972 10973 10973 10974 10975 10976 10977 10978 10979 10980 10981 10982 10983 10984 10984 10985 10985 10986 10987 10987 10988 10989 10989 10989 10989 10990 10990 10990 10990 10990 10991 10991 10991 10991 10991 10991 10991 10990 10989 10989 10990 10991 10991 10990 10990 10989 10989 10987 10984 10983
10929 10932 10933 10935 10936 10938 10939 10939 10939 10939 10940 10942 10943 10945 10947 10948 10950 10952 10954 10956 10957 10959 10960 10961 10962 10963 10964 10965 10966 10967 10968 10969 10970 10971 10971 10972 10973 10973 10974 10975 10976 10977 10978 10980 10981 10981 10982 10983 10983 10984 10984 10985 10986 10987 10987 10988 10988 10989 10989 10989 10989 10989 10989 10989 10989 10989 10989 10989 10989 10989 10989 10989 10988 10988 10988 10989 10990 10989 10989 10989 10988 10988 10986 10982 10980
10928 10930 10933 10935 10936 10938 10940 10941 10942 10942 10942 10943 10944 10945 10947 10948 10950 10952 10953 10955 10957 10959 10960 10961 10962 10962 10963 10965 10966 10967 10968 10969 10970 10971 10971 10972 10973 10974 10975 10976 10977 10978 10979 10979 10980 10981 10981 10982 10982 10983 10984 10984 10985 10986 10987 10987 10987 10988 10988 10988 10988 10988 10988 10988 10988 10988 10987 10987 10987 10987 10987 10987 10986 10986 10986 10986 10987 10987 10987 10987 10986 10984 10982 10979 10977
10928 10930 10931 10933 10935 10937 10939 10941 10943 10944 10944 10944 10944 10945 10947 10949 10951 10952 10954 10956 10957 10958 10959 10960 10961 10962 10963 10964 10965 10966 10967 10968 10969 10970 10971 10972 10973 10974 10975 10976 10977 10978 10979 10979 10980 10980 10980 10981 10981 10982 10983 10983 10984 10985 10985 10986 10986 10987 10987 10986 10986 10986 10986 10986 10986 10986 10986 10985 10985 10985 10984 10984 10984 10983 10983 10984 10984 10984 10984 10984 10983 10981 10978 10975 10974
10928 10929 10930 10932 10934 10936 10937 10939 10941 10942 10944 10944 10945 10946 10947 10949 10951 10953 10954 10956 10957 10958 10959 10960 10961 10962 10963 10964 10964 10966 10967 10968 10969 10970 10970 10972 10973 10974 10975 10976 10977 10978 10978 10979 10979 10979 10980 10980 10980 10981 10982 10982 10983 10984 10985 10985 10985 10985 10985 10985 10984 10984 10984 10984 10984 10983 10983 10983 10983 10982 10982 10981 10981 10981 10981 10981 10981 10981 10981 10980 10979 10978 10975 10972 10970
10926 10928 10930 10931 10933 10934 10936 10937 10939 10941 10942 10944 10945 10946 10947 10949 10950 10952 10953 10955 10956 10957 10959 10960 10961 10962 10963 10964 10964 10965 10966 10967 10968 10969 10970 10971 10971 10972 10973 10974 10975 10976 10977 10977 10978 10978 10978 10978 10979 10980 10981 10981 10982 10983 10983 10983 10983 10982 10982 10981 10981 10982 10982 10981 10981 10981 10980 10980 10979 10979 10979 10978 10978 10978 10978 10978 10978 10977 10977 10976 10975 10974 10972 10968 10966
10923 10926 10929 10931 10933 10934 10935 10936 10938 10939 10941 10943 10944 10945 10947 10948 10949 10951 10952 10953 10955 10956 10957 10959 10960 10961 10962 10963 10964 10964 10965 10966 10967 10967 10968 10969 10970 10971 10972 10972 10973 10974 10975 10975 10975 10976 10976 10976 10977 10978 10978 10979 10980 10980 10981 10981 10980 10979 10978 10977 10977 10977 10977 10978 10978 10977 10977 10976 10975 10975 10974 10974 10974 10973 10973 10974 10973 10973 10972 10971 10969 10968 10966 10964 10962
10922 10925 10929 10932 10934 10935 10935 10936 10937 10938 10939 10941 10942 10944 10945 10946 10948 10949 10951 10952 10954 10955 10956 10957 10958 10959 10960 10961 10962 10963 10963 10964 10965 10966 10966 10967 10968 10969 10970 10970 10971 10972 10973 10973 10973 10973 10974 10974 10975 10975 10975 10976 10977 10977 10978 10978 10978 10976 10974 10972 10972 10972 10972 10973 10973 10973 10972 10972 10971 10970 10969 10969 10969 10968 10968 10968 10968 10967 10967 10965 10963 10961 10959 10957 10955
10924 10927 10929 10932 10935 10936 10936 10937 10937 10937 10937 10938 10940 10942 10943 10945 10946 10947 10949 10950 10952 10953 10954 10955 10955 10956 10957 10958 10959 10960 10961 10962 10963 10964 10964 10965 10966 10966 10967 10968 10969 10970 10970 10971 10971 10970 10971 10972 10973 10973 10973 10973 10974 10974 10975 10976 10975 10974 10970 10966 10966 10966 10967 10967 10968 10968 10967 10967 10966 10965 10964 10964 10963 10963 10963 10962 10961 10961 10960 10959 10956 10954 10952 10950 10948
10925 10928 10930 10932 10935 10937 10937 10937 10937 10937 10937 10937 10938 10940 10942 10943 10945 10945 10946 10947 10949 10950 10951 10952 10953 10954 10955 10955 10956 10957 10957 10959 10960 10960 10961 10962 10963 10963 10964 10965 10966 10967 10967 10967 10967 10967 10967 10969 10969 10970 10970 10971 10971 10971 10972 10972 10972 10970 10965 10961 10960 10961 10961 10962 10962 10962 10962 10962 10961 10960 10959 10958 10958 10957 10957 10956 10955 10954 10953 10952 10950 10947 10944 10942 10940
10926 10930 10932 10934 10936 10937 10937 10937 10937 10936 10936 10937 10938 10939 10940 10941 10942 10943 10944 10945 10946 10948 10949 10951 10952 10953 10954 10954 10955 10955 10956 10956 10957 10958 10958 10959 10959 10960 10961 10962 10963 10963 10963 10963 10962 10963 10964 10965 10966 10966 10967 10967 10967 10967 10967 10967 10966 10964 10960 10957 10956 10956 10956 10956 10957 10957 10957 10956 10956 10955 10954 10953 10952 10951 10950 10949 10948 10947 10945 10944 10942 10940 10937 10934 10932
10925 10929 10932 10934 10936 10936 10936 10935 10935 10935 10935 10935 10936 10937 10937 10938 10939 10940 10942 10943 10945 10946 10948 10949 10950 10951 10952 10953 10953 10954 10955 10955 10955 10956 10956 10956 10957 10957 10958 10958 10959 10959 10959 10959 10959 10959 10960 10961 10962 10963 10963 10963 10962 10962 10962 10961 10960 10958 10955 10953 10952 10952 10952 10952 10952 10952 10952 10951 10950 10950 10949 10947 10946 10945 10943 10942 10941 10939 10937 10936 10934 10932 10929 10927 10924
10921 10925 10928 10931 10931 10932 10932 10932 10932 10932 10932 10933 10933 10933 10934 10935 10937 10938 10940 10941 10943 10944 10945 10946 10946 10947 10948 10949 10950 10951 10951 10951 10952 10952 10953 10953 10953 10954 10954 10955 10955 10955 10954 10955 10955 10956 10957 10958 10958 10958 10958 10958 10958 10957 10957 10956 10954 10953 10951 10949 10947 10946 10946 10947 10947 10946 10946 10946 10945 10944 10943 10941 10939 10937 10936 10934 10932 10931 10929 10928 10926 10924 10921 10919 10916
10914 10917 10920 10922 10923 10924 10926 10927 10928 10928 10929 10929 10929 10930 10931 10933 10934 10936 10938 10939 10940 10941 10941 10941 10941 10942 10944 10945 10946 10946 10947 10947 10948 10948 10949 10949 10950 10950 10951 10951 10950 10950 10951 10951 10952 10952 10953 10954 10954 10954 10954 10953 10953 10952 10951 10951 10950 10948 10947 10945 10943 10941 10941 10941 10941 10940 10940 10939 10938 10936 10935 10933 10932 10930 10928 10926 10925 10923 10921 10919 10918 10915 10913 10911 10908
10906 10909 10912 10916 10918 10919 10921 10922 10922 10923 10924 10925 10926 10927 10928 10930 10932 10933 10935 10936 10936 10936 10936 10937 10938 10940 10941 10942 10943 10943 10944 10944 10945 10945 10945 10946 10946 10947 10947 10946 10946 10946 10947 10948 10948 10948 10948 10948 10949 10949 10948 10948 10947 10947 10946 10946 10945 10943 10941 10939 10937 10936 10935 10935 10934 10933 10932 10931 10929 10928 10927 10926 10924 10923 10921 10919 10917 10915 10913 10911 10909 10907 10905 10902 10899
10900 10904 10908 10911 10912 10913 10914 10915 10916 10919 10920 10921 10922 10924 10925 10927 10929 10930 10932 10932 10932 10932 10932 10934 10935 10936 10937 10938 10939 10939 10940 10940 10941 10941 10941 10942 10942 10942 10942 10941 10941 10941 10942 10943 10943 10943 10942 10942 10943 10943 10943 10942 10941 10941 10940 10939 10938 10937 10935 10933 10932 10931 10930 10928 10927 10926 10925 10923 10922 10920 10919 10918 10917 10915 10913 10911 10909 10907 10905 10903 10900 10898 10895 10893 10890
10895 10899 10902 10903 10903 10904 10905 10908 10912 10916 10917 10918 10919 10920 10922 10923 10924 10926 10927 10927 10927 10928 10928 10929 10930 10931 10932 10934 10935 10935 10936 10936 10936 10936 10937 10937 10937 10938 10937 10936 10936 10937 10938 10938 10937 10937 10937 10936 10937 10937 10937 10936 10935 10934 10933 10931 10930 10930 10928 10927 10926 10925 10923 10922 10921 10919 10917 10916 10914 10912 10911 10909 10908 10907 10905 10903 10901 10899 10896 10894 10891 10889 10886 10883 10881
10886 10890 10893 10894 10895 10896 10898 10902 10907 10909 10910 10911 10912 10915 10918 10919 10919 10920 10921 10921 10921 10922 10923 10924 10925 10926 10928 10929 10930 10931 10932 10932 10932 10932 10932 10932 10932 10932 10932 10932 10931 10931 10932 10932 10932 10931 10930 10930 10931 10930 10930 10930 10929 10926 10924 10922 10922 10922 10922 10920 10919 10918 10917 10915 10914 10912 10910 10908 10906 10904 10902 10900 10899 10897 10896 10894 10892 10890 10887 10884 10882 10879 10876 10873 10871
10879 10882 10884 10886 10889 10891 10893 10897 10901 10902 10903 10904 10906 10909 10912 10913 10914 10915 10915 10915 10915 10916 10917 10918 10919 10921 10922 10924 10925 10926 10927 10928 10928 10927 10926 10926 10926 10926 10927 10927 10926 10926 10926 10925 10925 10924 10923 10924 10924 10923 10923 10924 10921 10916 10914 10914 10914 10913 10913 10912 10911 10910 10909 10907 10906 10904 10902 10900 10897 10895 10893 10891 10890 10888 10886 10885 10882 10880 10877 10874 10871 10868 10866 10863 10860
10875 10877 10878 10880 10883 10886 10888 10891 10893 10895 10896 10899 10901 10902 10904 10906 10907 10908 10908 10909 10910 10911 10912 10912 10914 10915 10917 10918 10920 10921 10921 10921 10921 10920 10919 10919 10920 10921 10921 10921 10921 10921 10920 10918 10917 10917 10916 10917 10917 10915 10915 10916 10913 10909 10906 10906 10905 10904 10903 10902 10901 10900 10899 10898 10896 10894 10892 10890 10889 10887 10885 10883 10881 10879 10876 10874 10872 10869 10866 10863 10860 10857 10854 10851 10848
10869 10872 10874 10875 10878 10880 10882 10884 10886 10888 10890 10893 10894 10895 10897 10899 10900 10901 10902 10903 10904 10905 10907 10908 10910 10911 10912 10912 10914 10915 10915 10914 10914 10914 10914 10914 10914 10915 10915 10915 10915 10915 10914 10912 10910 10909 10909 10909 10909 10908 10908 10908 10906 10902 10900 10898 10896 10895 10893 10892 10890 10890 10889 10888 10886 10884 10882 10880 10879 10877 10876 10873 10871 10868 10866 10863 10860 10857 10854 10851 10848 10845 10842 10838 10835
10864 10866 10868 10870 10873 10875 10876 10878 10880 10882 10884 10887 10888 10889 10890 10892 10893 10894 10895 10896 10898 10900 10902 10904 10905 10906 10906 10906 10907 10908 10908 10908 10908 10908 10908 10908 10907 10908 10908 10908 10908 10908 10907 10906 10904 10903 10902 10902 10902 10901 10900 10899 10898 10896 10893 10890 10888 10886 10885 10883 10882 10880 10879 10878 10876 10874 10873 10871 10869 10867 10864 10862 10859 10857 10854 10851 10847 10844 10841 10838 10834 10831 10828 10824 10821
10857 10860 10863 10865 10867 10869 10871 10873 10875 10877 10879 10881 10883 10884 10885 10886 10887 10889 10890 10891 10893 10895 10896 10897 10898 10899 10900 10900 10900 10901 10901 10901 10901 10901 10901 10901 10901 10901 10901 10901 10901 10901 10900 10899 10898 10896 10895 10895 10894 10893 10892 10891 10890 10888 10885 10883 10880 10878 10876 10875 10873 10872 10870 10869 10867 10865 10863 10860 10858 10855 10852 10850 10847 10844 10841 10838 10834 10830 10827 10823 10820 10817 10813 10810 10806
10848 10853 10856 10859 10861 10864 10866 10868 10870 10872 10874 10876 10877 10879 10879 10880 10882 10883 10884 10885 10886 10888 10889 10890 10891 10892 10893 10893 10893 10894 10894 10894 10893 10893 10893 10893 10893 10894 10894 10894 10893 10893 10892 10891 10890 10889 10888 10887 10886 10884 10883 10882 10880 10879 10877 10875 10873 10870 10868 10866 10865 10863 10861 10858 10856 10854 10851 10848 10845 10842 10840 10837 10834 10831 10828 10824 10820 10816 10813 10809 10806 10802 10799 10795 10792
10840 10845 10849 10852 10855 10858 10860 10862 10864 10866 10868 10870 10871 10873 10874 10875 10876 10877 10878 10879 10879 10880 10881 10882 10883 10884 10885 10885 10885 10886 10886 10886 10886 10885 10885 10885 10885 10885 10886 10886 10885 10884 10884 10883 10882 10881 10880 10878 10877 10875 10874 10872 10870 10869 10867 10865 10863 10861 10859 10857 10854 10852 10849 10847 10844 10842 10839 10836 10833 10830 10828 10825 10822 10818 10815 10811 10807 10803 10800 10797 10793 10789 10786 10782 10778
10834 10837 10841 10845 10848 10851 10854 10856 10858 10860 10862 10863 10865 10866 10867 10868 10869 10870 10871 10871 10872 10872 10872 10873 10874 10875 10876 10876 10877 10877 10878 10878 10878 10878 10878 10877 10877 10877 10876 10877 10876 10875 10875 10875 10874 10872 10871 10870 10868 10866 10865 10863 10861 10859 10857 10855 10853 10851 10849 10846 10844 10841 10839 10836 10834 10831 10828 10825 10822 10819 10816 10813 10810 10806 10802 10798 10795 10791 10788 10785 10781 10777 10774 10770 10766
10827 10831 10834 10838 10841 10844 10847 10850 10852 10853 10854 10855 10857 10858 10859 10860 10861 10862 10863 10863 10864 10865 10865 10865 10865 10866 10867 10867 10868 10869 10869 10870 10870 10871 10870 10870 10870 10869 10869 10869 10868 10867 10866 10866 10865 10864 10862 10861 10859 10858 10856 10855 10853 10851 10849 10846 10844 10842 10839 10837 10834 10831 10829 10826 10824 10821 10818 10815 10812 10809 10805 10802 10799 10795 10791 10787 10784 10780 10777 10773 10769 10765 10761 10757 10752
10823 10826 10828 10831 10834 10837 10840 10842 10845 10847 10848 10849 10849 10850 10851 10852 10853 10854 10855 10855 10856 10857 10857 10858 10858 10858 10858 10858 10859 10859 10860 10860 10860 10861 10861 10861 10861 10860 10860 10860 10860 10859 10858 10857 10856 10856 10854 10853 10852 10850 10849 10847 10845 10843 10840 10838 10835 10833 10831 10828 10825 10822 10819 10817 10814 10811 10808 10805 10802 10799 10795 10791 10787 10783 10779 10775 10771 10767 10763 10759 10754 10749 10745 10740 10736
10818 10820 10822 10824 10826 10828 10830 10833 10836 10839 10841 10842 10843 10843 10844 10845 10846 10846 10847 10847 10848 10848 10849 10849 10850 10850 10850 10850 10850 10850 10850 10850 10850 10850 10851 10851 10851 10850 10850 10849 10849 10848 10847 10846 10846 10845 10844 10843 10842 10840 10838 10836 10834 10832 10830 10827 10824 10822 10820 10818 10815 10813 10809 10806 10803 10800 10797 10793 10789 10785 10782 10777 10773 10768 10764 10760 10755 10751 10747 10743 10738 10733 10727 10722 10718
10812 10814 10816 10817 10818 10820 10822 10825 10827 10830 10832 10834 10835 10836 10837 10837 10838 10839 10839 10840 10840 10840 10840 10841 10841 10841 10841 10842 10842 10841 10841 10840 10840 10840 10840 10840 10840 10840 10839 10838 10837 10837 10836 10835 10834 10833 10832 10831 10829 10828 10826 10824 10821 10819 10817 10814 10811 10808 10806 10804 10802 10800 10796 10793 10790 10786 10783 10779 10775 10771 10767 10762 10757 10753 10749 10744 10739 10735 10730 10726 10722 10718 10712 10705 10699
10805 10807 10809 10810 10812 10813 10815 10818 10820 10822 10824 10826 10828 10829 10830 10831 10831 10831 10832 10832 10833 10833 10833 10833 10833 10833 10833 10833 10833 10833 10832 10831 10831 10830 10830 10830 10829 10828 10828 10827 10826 10825 10825 10824 10823 10821 10820 10819 10817 10815 10813 10811 10808 10806 10803 10801 10798 10795 10793 10791 10789 10786 10782 10779 10776 10772 10768 10765 10761 10756 10751 10747 10742 10737 10733 10729 10724 10720 10715 10710 10705 10701 10696 10690 10682
10798 10800 10802 10804 10806 10808 10809 10811 10812 10814 10816 10818 10820 10821 10823 10824 10824 10824 10824 10824 10824 10825 10825 10825 10825 10825 10825 10825 10825 10825 10824 10823 10823 10822 10821 10820 10819 10818 10816 10816 10815 10814 10813 10812 10811 10810 10808 10806 10804 10803 10801 10798 10795 10792 10790 10787 10785 10782 10780 10778 10775 10772 10767 10764 10761 10757 10753 10750 10746 10741 10736 10732 10727 10722 10718 10713 10709 10704 10699 10694 10688 10681 10675 10670 10664
10792 10794 10796 10798 10800 10802 10803 10804 10805 10806 10808 10809 10811 10813 10814 10815 10816 10816 10816 10816 10816 10815 10815 10816 10816 10816 10816 10816 10816 10816 10815 10815 10814 10813 10811 10810 10809 10807 10806 10805 10803 10802 10801 10800 10799 10797 10796 10794 10792 10790 10787 10785 10782 10779 10777 10774 10771 10768 10766 10763 10760 10757 10754 10750 10747 10743 10739 10735 10730 10726 10721 10716 10711 10706 10701 10696 10691 10686 10681 10675 10670 10663 10656 10650 10644
10785 10787 10790 10791 10793 10795 10796 10797 10798 10799 10800 10801 10802 10804 10805 10806 10807 10807 10807 10807 10807 10806 10806 10806 10806 10806 10806 10805 10805 10805 10805 10804 10803 10802 10801 10799 10798 10796 10795 10793 10792 10790 10789 10788 10786 10784 10783 10781 10778 10775 10773 10770 10768 10765 10762 10759 10756 10753 10751 10748 10745 10742 10739 10736 10732 10727 10723 10719 10714 10709 10703 10699 10694 10689 10684 10679 10674 10669 10663 10657 10651 10646 10640 10634 10627
10777 10779 10781 10783 10785 10786 10788 10789 10790 10791 10791 10793 10794 10795 10796 10796 10797 10797 10797 10797 10797 10796 10796 10795 10795 10795 10795 10794 10794 10794 10793 10792 10791 10790 10789 10788 10786 10785 10783 10782 10780 10778 10777 10775 10773 10771 10769 10766 10764 10761 10758 10756 10753 10749 10746 10743 10740 10737 10735 10732 10728 10724 10722 10718 10714 10709 10705 10702 10697 10692 10687 10682 10678 10672 10667 10662 10657 10652 10646 10640 10634 10628 10622 10616 10610
10770 10772 10773 10774 10776 10777 10778 10780 10781 10782 10783 10784 10784 10785 10786 10786 10787 10787 10787 10786 10786 10785 10785 10784 10784 10784 10783 10783 10782 10782 10781 10781 10780 10779 10777 10775 10774 10773 10771 10769 10768 10766 10764 10761 10759 10757 10755 10752 10749 10746 10744 10741 10737 10734 10730 10727 10723 10720 10717 10715 10711 10707 10703 10700 10696 10692 10688 10684 10680 10675 10670 10666 10661 10655 10650 10645 10640 10635 10629 10623 10616 10610 10604 10598 10592
10761 10763 10764 10766 10767 10768 10769 10770 10771 10772 10773 10774 10774 10775 10776 10776 10776 10776 10776 10776 10776 10775 10774 10774 10773 10773 10772 10771 10771 10770 10770 10769 10768 10766 10765 10763 10761 10760 10758 10756 10755 10753 10750 10748 10746 10744 10741 10738 10735 10732 10729 10726 10722 10719 10715 10711 10708 10704 10701 10698 10694 10691 10687 10683 10679 10675 10671 10667 10662 10658 10653 10648 10643 10638 10633 10628 10622 10617 10612 10607 10600 10593 10587 10581 10576
10752 10754 10755 10756 10757 10758 10759 10759 10760 10761 10762 10762 10763 10764 10764 10765 10765 10765 10765 10765 10765 10764 10764 10763 10762 10761 10761 10760 10759 10759 10758 10756 10755 10753 10752 10750 10749 10747 10745 10743 10741 10739 10737 10734 10732 10729 10727 10724 10721 10718 10715 10711 10708 10705 10701 10697 10694 10690 10687 10683 10679 10675 10671 10667 10662 10658 10654 10650 10646 10641 10636 10630 10625 10621 10616 10611 10605 10600 10595 10590 10584 10578 10571 10565 10560
10744 10745 10746 10747 10748 10748 10749 10749 10750 10750 10751 10751 10752 10752 10753 10753 10753 10753 10753 10753 10753 10752 10752 10751 10750 10749 10748 10747 10747 10746 10745 10743 10742 10740 10738 10736 10735 10733 10731 10729 10727 10724 10722 10719 10717 10714 10712 10709 10706 10703 10700 10697 10694 10690 10686 10682 10679 10675 10672 10668 10664 10660 10656 10651 10647 10642 10638 10634 10629 10624 10619 10614 10609 10605 10600 10596 10591 10585 10579 10574 10569 10563 10557 10551 10546
10735 10736 10737 10738 10739 10739 10740 10740 10740 10740 10740 10741 10741 10741 10741 10741 10741 10741 10741 10740 10740 10739 10739 10738 10737 10736 10735 10734 10733 10732 10731 10730 10728 10726 10724 10722 10719 10718 10716 10714 10711 10709 10706 10704 10702 10699 10696 10694 10691 10688 10685 10682 10678 10675 10671 10667 10664 10660 10657 10653 10649 10645 10640 10636 10632 10627 10622 10618 10613 10608 10604 10599 10595 10590 10585 10581 10576 10571 10565 10560 10554 10549 10543 10538 10532
10727 10728 10729 10729 10729 10730 10730 10730 10730 10730 10730 10730 10730 10729 10729 10729 10728 10728 10728 10727 10726 10725 10725 10724 10723 10722 10721 10719 10718 10717 10716 10714 10713 10711 10709 10706 10704 10701 10699 10697 10695 10693 10691 10688 10686 10683 10681 10678 10675 10672 10669 10666 10663 10659 10656 10652 10648 10645 10642 10638 10634 10629 10625 10621 10616 10612 10607 10603 10598 10594 10590 10586 10581 10576 10571 10566 10562 10557 10552 10546 10541 10535 10530 10525 10520
10719 10719 10720 10720 10720 10720 10720 10720 10720 10720 10719 10719 10718 10718 10718 10717 10717 10716 10715 10715 10714 10713 10712 10711 10710 10709 10708 10706 10704 10702 10701 10699 10698 10696 10694 10692 10689 10686 10684 10682 10679 10677 10675 10672 10670 10667 10665 10662 10659 10656 10653 10650 10647 10644 10641 10637 10633 10630 10627 10623 10619 10614 10610 10606 10602 10598 10593 10589 10584 10580 10576 10572 10568 10563 10559 10554 10549 10545 10539 10534 10528 10523 10518 10513 10508
10711 10711 10711 10711 10711 10711 10711 10711 10710 10710 10709 10709 10708 10707 10706 10706 10705 10704 10703 10702 10701 10700 10699 10698 10697 10696 10695 10693 10692 10690 10688 10686 10684 10682 10680 10678 10675 10673 10670 10668 10665 10663 10660 10658 10655 10653 10650 10647 10645 10642 10639 10635 10632 10629 10626 10623 10619 10616 10612 10608 10604 10600 10596 10592 10588 10584 10579 10575 10571 10567 10563 10559 10555 10551 10547 10542 10537 10532 10527 10521 10516 10511 10506 10501 10495
10704 10704 10704 10704 10704 10703 10703 10702 10702 10701 10700 10699 10698 10697 10696 10695 10693 10692 10691 10690 10689 10688 10687 10685 10684 10683 10682 10681 10679 10677 10675 10673 10671 10669 10667 10665 10663 10660 10657 10655 10653 10650 10647 10645 10642 10639 10637 10634 10632 10629 10625 10622 10618 10615 10612 10609 10606 10602 10599 10595 10591 10587 10583 10579 10574 10570 10567 10563 10559 10555 10551 10548 10543 10539 10535 10530 10525 10520 10514 10509 10504 10499 10494 10489 10483